| time (UTC) | temp F | wind direction | speed knots | gust knots | rain 1hr in | rain 24hr in | rain mn in | humidity % | barometer mb |
| 20260507060534 | 41 | 72 | 1.7 | 2.6 | 0.00 | 0.00 | 0.00 | 99 | 1010.4 |
| 20260507060031 | 41 | 91 | 0.9 | 2.6 | 0.00 | 0.00 | 0.00 | 99 | 1010.4 |
| 20260507055525 | 41 | 179 | 0.9 | 5.2 | 0.00 | 0.00 | 0.00 | 99 | 1010.3 |
| 20260507055022 | 41 | 66 | 0.9 | 6.1 | 0.00 | 0.00 | 0.00 | 99 | 1010.0 |
| 20260507054518 | 42 | 320 | 0.0 | 3.5 | 0.00 | 0.00 | 0.00 | 99 | 1010.2 |
| 20260507054015 | 42 | 84 | 0.9 | 1.7 | 0.00 | 0.00 | 0.00 | 99 | 1010.1 |
| 20260507053513 | 42 | 87 | 0.0 | 1.7 | 0.00 | 0.00 | 0.00 | 99 | 1010.1 |
| 20260507053011 | 42 | 359 | 0.9 | 2.6 | 0.00 | 0.00 | 0.00 | 99 | 1010.1 |
| 20260507052509 | 42 | 106 | 0.9 | 2.6 | 0.00 | 0.00 | 0.00 | 99 | 1010.2 |
| 20260507052005 | 42 | 89 | 0.9 | 2.6 | 0.00 | 0.00 | 0.00 | 99 | 1010.0 |
| 20260507051503 | 42 | 82 | 0.0 | 2.6 | 0.00 | 0.00 | 0.00 | 99 | 1010.1 |
| 20260507050959 | 42 | 84 | 1.7 | 5.2 | 0.00 | 0.00 | 0.00 | 99 | 1010.2 |
| 20260507050456 | 42 | 93 | 1.7 | 2.6 | 0.00 | 0.00 | 0.00 | 99 | 1010.0 |
| 20260507045953 | 42 | 80 | 1.7 | 3.5 | 0.00 | 0.00 | 0.00 | 99 | 1010.2 |
| 20260507045449 | 42 | 146 | 0.9 | 1.7 | 0.00 | 0.00 | 0.00 | 99 | 1010.0 |
| 20260507044947 | 42 | 22 | 0.0 | 0.9 | 0.00 | 0.00 | 0.00 | 99 | 1009.9 |
| 20260507044443 | 42 | 94 | 1.7 | 3.5 | 0.00 | 0.00 | 0.00 | 99 | 1010.1 |
| 20260507043939 | 42 | 112 | 0.9 | 1.7 | 0.00 | 0.00 | 0.00 | 99 | 1010.3 |
| 20260507043436 | 42 | 96 | 0.9 | 1.7 | 0.00 | 0.00 | 0.00 | 99 | 1010.2 |
| 20260507042932 | 42 | 150 | 0.0 | 0.9 | 0.00 | 0.00 | 0.00 | 99 | 1010.2 |
| 20260507042429 | 41 | 92 | 0.9 | 1.7 | 0.00 | 0.00 | 0.00 | 99 | 1010.2 |
| 20260507041925 | 41 | 72 | 0.0 | 0.9 | 0.00 | 0.00 | 0.00 | 99 | 1010.1 |
| 20260507041422 | 40 | 31 | 0.0 | 0.0 | 0.00 | 0.00 | 0.00 | 99 | 1010.1 |
| 20260507040919 | 40 | 4 | 0.0 | 0.0 | 0.00 | 0.00 | 0.00 | 99 | 1010.5 |
| 20260507040415 | 40 | 257 | 0.0 | 0.0 | 0.00 | 0.00 | 0.00 | 99 | 1010.3 |
| 20260507035911 | 40 | 284 | 0.0 | 0.0 | 0.05 | 0.45 | 0.45 | 99 | 1010.1 |
| 20260507035407 | 40 | 24 | 0.0 | 0.0 | 0.05 | 0.45 | 0.45 | 99 | 1010.2 |
| 20260507034904 | 40 | 242 | 0.0 | 0.0 | 0.00 | 0.44 | 0.44 | 99 | 1010.3 |
| 20260507034401 | 40 | 249 | 0.0 | 0.9 | 0.00 | 0.44 | 0.44 | 99 | 1010.2 |
| 20260507033859 | 40 | 296 | 0.0 | 0.0 | 0.00 | 0.44 | 0.44 | 99 | 1010.2 |
| 20260507033357 | 40 | 295 | 0.0 | 0.0 | 0.00 | 0.44 | 0.44 | 99 | 1010.0 |
| 20260507032853 | 40 | 301 | 0.0 | 0.0 | 0.00 | 0.44 | 0.44 | 99 | 1009.9 |
| 20260507032350 | 40 | 338 | 0.0 | 0.0 | 0.00 | 0.44 | 0.44 | 99 | 1010.0 |
| 20260507031846 | 40 | 269 | 0.0 | 0.0 | 0.00 | 0.44 | 0.44 | 99 | 1010.1 |
| 20260507031343 | 39 | 76 | 0.0 | 1.7 | 0.00 | 0.44 | 0.44 | 99 | 1009.9 |
| 20260507030840 | 39 | 340 | 0.0 | 0.0 | 0.00 | 0.44 | 0.44 | 99 | 1009.9 |
| 20260507030337 | 40 | 159 | 0.0 | 0.9 | 0.00 | 0.44 | 0.44 | 99 | 1009.9 |
| 20260507025834 | 40 | 158 | 0.0 | 0.0 | 0.00 | 0.44 | 0.44 | 99 | 1009.9 |
| 20260507025331 | 40 | 158 | 0.0 | 0.0 | 0.00 | 0.44 | 0.44 | 99 | 1009.9 |
| 20260507024829 | 41 | 158 | 0.0 | 0.0 | 0.00 | 0.44 | 0.44 | 99 | 1010.0 |
| 20260507024326 | 41 | 158 | 0.0 | 0.0 | 0.00 | 0.44 | 0.44 | 99 | 1010.5 |
| 20260507023822 | 41 | 158 | 0.0 | 0.0 | 0.00 | 0.44 | 0.44 | 99 | 1010.2 |
| 20260507023319 | 41 | 158 | 0.0 | 0.0 | 0.00 | 0.44 | 0.44 | 99 | 1010.2 |
| 20260507022816 | 41 | 158 | 0.0 | 0.0 | 0.00 | 0.44 | 0.44 | 99 | 1010.4 |
| 20260507022312 | 42 | 43 | 0.0 | 0.0 | 0.00 | 0.44 | 0.44 | 99 | 1010.5 |
| 20260507021809 | 42 | 43 | 0.0 | 0.0 | 0.00 | 0.44 | 0.44 | 99 | 1010.3 |
| 20260507021304 | 42 | 37 | 0.0 | 0.0 | 0.00 | 0.44 | 0.44 | 99 | 1010.3 |
| 20260507020802 | 42 | 312 | 0.0 | 0.0 | 0.00 | 0.44 | 0.44 | 99 | 1010.4 |
| 20260507020258 | 42 | 330 | 0.0 | 0.0 | 0.00 | 0.44 | 0.44 | 99 | 1010.4 |
| 20260507015756 | 42 | 246 | 0.0 | 0.0 | 0.00 | 0.44 | 0.44 | 99 | 1010.8 |
| 20260507015253 | 42 | 67 | 0.0 | 0.9 | 0.00 | 0.44 | 0.44 | 99 | 1010.9 |
| 20260507014750 | 42 | 353 | 0.0 | 0.0 | 0.00 | 0.44 | 0.44 | 99 | 1010.3 |
| 20260507014246 | 43 | 353 | 0.0 | 0.0 | 0.00 | 0.44 | 0.44 | 99 | 1010.5 |
| 20260507013743 | 43 | 88 | 0.0 | 0.0 | 0.00 | 0.44 | 0.44 | 99 | 1010.8 |
| 20260507013241 | 43 | 74 | 0.0 | 0.0 | 0.00 | 0.44 | 0.44 | 99 | 1011.0 |
| 20260507012738 | 43 | 65 | 0.9 | 1.7 | 0.00 | 0.44 | 0.44 | 99 | 1011.0 |
| 20260507012233 | 43 | 64 | 0.9 | 0.9 | 0.00 | 0.44 | 0.44 | 99 | 1010.7 |
| 20260507011731 | 43 | 75 | 0.0 | 0.9 | 0.00 | 0.44 | 0.44 | 99 | 1010.5 |
| 20260507011228 | 43 | 83 | 0.0 | 0.0 | 0.00 | 0.44 | 0.44 | 99 | 1010.6 |
| 20260507010727 | 43 | 212 | 0.9 | 0.9 | 0.00 | 0.44 | 0.44 | 99 | 1010.6 |
| 20260507010223 | 43 | 238 | 0.0 | 0.0 | 0.00 | 0.44 | 0.44 | 99 | 1010.4 |
| 20260507005721 | 43 | 46 | 0.0 | 0.9 | 0.00 | 0.44 | 0.44 | 99 | 1010.4 |
| 20260507005217 | 43 | 83 | 0.0 | 0.0 | 0.00 | 0.44 | 0.44 | 99 | 1010.5 |
| 20260507004714 | 43 | 56 | 0.0 | 0.0 | 0.00 | 0.44 | 0.44 | 99 | 1010.5 |
| 20260507004212 | 43 | 67 | 0.0 | 0.0 | 0.00 | 0.44 | 0.44 | 99 | 1010.4 |
| 20260507003707 | 43 | 76 | 0.0 | 0.9 | 0.00 | 0.44 | 0.44 | 99 | 1010.1 |
| 20260507003203 | 43 | 80 | 0.0 | 1.7 | 0.00 | 0.44 | 0.44 | 99 | 1010.0 |
| 20260507002659 | 43 | 78 | 0.0 | 0.0 | 0.00 | 0.44 | 0.44 | 99 | 1010.0 |
| 20260507002155 | 43 | 216 | 0.9 | 0.9 | 0.00 | 0.44 | 0.44 | 99 | 1010.0 |
| 20260507001652 | 43 | 260 | 1.7 | 5.2 | 0.00 | 0.44 | 0.44 | 99 | 1010.1 |
| 20260507001150 | 43 | 90 | 0.9 | 1.7 | 0.00 | 0.44 | 0.44 | 99 | 1010.0 |
| 20260507000646 | 43 | 265 | 0.0 | 0.9 | 0.00 | 0.44 | 0.44 | 99 | 1009.8 |
| 20260507000141 | 43 | 71 | 1.7 | 2.6 | 0.00 | 0.44 | 0.44 | 99 | 1009.6 |
| 20260506235639 | 43 | 22 | 0.9 | 1.7 | 0.00 | 0.44 | 0.44 | 99 | 1009.3 |
| 20260506235139 | 43 | 112 | 1.7 | 2.6 | 0.00 | 0.44 | 0.44 | 99 | 1009.1 |
| 20260506234636 | 43 | 124 | 1.7 | 5.2 | 0.00 | 0.44 | 0.44 | 99 | 1009.2 |
| 20260506234133 | 43 | 104 | 1.7 | 2.6 | 0.00 | 0.44 | 0.44 | 99 | 1009.5 |
| 20260506233630 | 43 | 63 | 0.9 | 3.5 | 0.00 | 0.44 | 0.44 | 99 | 1009.5 |
| 20260506233127 | 43 | 59 | 0.0 | 2.6 | 0.00 | 0.44 | 0.44 | 99 | 1009.3 |
| 20260506232623 | 43 | 129 | 1.7 | 3.5 | 0.00 | 0.44 | 0.44 | 99 | 1009.3 |
| 20260506232119 | 44 | 59 | 0.9 | 1.7 | 0.00 | 0.44 | 0.44 | 99 | 1009.0 |
| 20260506231616 | 43 | 265 | 0.0 | 1.7 | 0.00 | 0.44 | 0.44 | 99 | 1009.0 |
| 20260506231114 | 44 | 55 | 0.0 | 0.0 | 0.00 | 0.44 | 0.44 | 99 | 1009.2 |
| 20260506230611 | 44 | 75 | 0.9 | 6.1 | 0.00 | 0.44 | 0.44 | 99 | 1009.5 |
| 20260506230108 | 44 | 170 | 1.7 | 2.6 | 0.00 | 0.44 | 0.44 | 99 | 1009.1 |
| 20260506225604 | 44 | 92 | 0.9 | 3.5 | 0.00 | 0.44 | 0.44 | 99 | 1009.1 |
| 20260506225101 | 44 | 104 | 0.9 | 6.1 | 0.00 | 0.44 | 0.44 | 99 | 1009.3 |
| 20260506224558 | 44 | 286 | 0.9 | 2.6 | 0.00 | 0.44 | 0.44 | 99 | 1009.2 |
| 20260506224054 | 44 | 107 | 0.9 | 3.5 | 0.00 | 0.44 | 0.44 | 99 | 1009.1 |
| 20260506223550 | 44 | 84 | 3.5 | 6.1 | 0.00 | 0.44 | 0.44 | 99 | 1009.0 |
| 20260506223047 | 44 | 166 | 2.6 | 2.6 | 0.00 | 0.44 | 0.44 | 99 | 1009.1 |
| 20260506222544 | 44 | 145 | 2.6 | 3.5 | 0.00 | 0.44 | 0.44 | 99 | 1008.9 |
| 20260506222040 | 44 | 63 | 0.9 | 5.2 | 0.00 | 0.44 | 0.44 | 99 | 1008.9 |
| 20260506221538 | 44 | 76 | 0.0 | 1.7 | 0.00 | 0.44 | 0.44 | 99 | 1008.7 |
| 20260506221036 | 44 | 89 | 0.0 | 1.7 | 0.00 | 0.44 | 0.44 | 99 | 1008.7 |
| 20260506220531 | 45 | 208 | 0.0 | 1.7 | 0.00 | 0.44 | 0.44 | 99 | 1008.7 |
| 20260506220027 | 44 | 165 | 0.9 | 3.5 | 0.00 | 0.44 | 0.44 | 99 | 1008.6 |
| 20260506215524 | 44 | 273 | 1.7 | 2.6 | 0.00 | 0.44 | 0.44 | 99 | 1008.5 |
| 20260506215020 | 44 | 42 | 0.9 | 1.7 | 0.00 | 0.44 | 0.44 | 99 | 1008.3 |
| 20260506214517 | 44 | 211 | 0.9 | 3.5 | 0.00 | 0.44 | 0.44 | 99 | 1008.2 |
| 20260506214014 | 45 | 351 | 0.0 | 1.7 | 0.00 | 0.44 | 0.44 | 99 | 1008.3 |
| 20260506213513 | 45 | 71 | 0.9 | 2.6 | 0.07 | 0.44 | 0.44 | 99 | 1008.2 |
| 20260506213009 | 45 | 130 | 0.0 | 2.6 | 0.07 | 0.44 | 0.44 | 99 | 1008.1 |
| 20260506212505 | 45 | 76 | 0.0 | 2.6 | 0.00 | 0.43 | 0.43 | 99 | 1007.9 |
| 20260506212000 | 45 | 194 | 1.7 | 1.7 | 0.05 | 0.43 | 0.43 | 99 | 1007.8 |
| 20260506211456 | 45 | 74 | 0.9 | 2.6 | 0.05 | 0.43 | 0.43 | 99 | 1007.9 |
| 20260506210954 | 45 | 77 | 1.7 | 3.5 | 0.00 | 0.42 | 0.42 | 99 | 1007.9 |
| 20260506210450 | 45 | 174 | 2.6 | 5.2 | 0.00 | 0.42 | 0.42 | 99 | 1007.8 |
| 20260506205947 | 46 | 70 | 2.6 | 3.5 | 0.00 | 0.42 | 0.42 | 99 | 1007.6 |
| 20260506205443 | 46 | 265 | 0.9 | 6.1 | 0.00 | 0.42 | 0.42 | 99 | 1007.3 |
| 20260506204940 | 46 | 77 | 1.7 | 7.0 | 0.00 | 0.42 | 0.42 | 99 | 1007.3 |
| 20260506204438 | 46 | 115 | 3.5 | 7.8 | 0.00 | 0.42 | 0.42 | 99 | 1007.1 |
| 20260506203935 | 46 | 82 | 1.7 | 3.5 | 0.00 | 0.42 | 0.42 | 99 | 1006.9 |
| 20260506203432 | 46 | 95 | 1.7 | 3.5 | 0.00 | 0.42 | 0.42 | 99 | 1007.0 |
| 20260506202929 | 47 | 90 | 0.0 | 0.9 | 0.07 | 0.42 | 0.42 | 99 | 1007.2 |
| 20260506202426 | 47 | 80 | 0.9 | 1.7 | 0.00 | 0.41 | 0.41 | 99 | 1006.8 |
| 20260506201922 | 47 | 73 | 1.7 | 2.6 | 0.00 | 0.41 | 0.41 | 99 | 1006.6 |
| 20260506201420 | 47 | 75 | 1.7 | 3.5 | 0.05 | 0.41 | 0.41 | 99 | 1006.6 |
| 20260506200916 | 47 | 55 | 3.5 | 5.2 | 0.07 | 0.40 | 0.40 | 99 | 1006.5 |
| 20260506200412 | 47 | 59 | 1.7 | 3.5 | 0.07 | 0.40 | 0.40 | 99 | 1006.7 |
| 20260506195909 | 47 | 214 | 1.7 | 3.5 | 0.05 | 0.39 | 0.39 | 99 | 1006.7 |
| 20260506195406 | 47 | 72 | 0.9 | 5.2 | 0.19 | 0.39 | 0.39 | 99 | 1006.6 |
| 20260506194903 | 48 | 92 | 1.7 | 5.2 | 0.12 | 0.37 | 0.37 | 99 | 1006.5 |
| 20260506194400 | 49 | 107 | 1.7 | 5.2 | 0.05 | 0.36 | 0.36 | 99 | 1006.6 |
| 20260506193857 | 51 | 93 | 2.6 | 5.2 | 0.07 | 0.35 | 0.35 | 99 | 1006.5 |
| 20260506193354 | 55 | 64 | 4.3 | 6.1 | 0.07 | 0.35 | 0.35 | 99 | 1006.1 |
| 20260506192850 | 55 | 126 | 1.7 | 2.6 | 0.00 | 0.34 | 0.34 | 99 | 1006.2 |
| 20260506192347 | 55 | 281 | 0.0 | 3.5 | 0.00 | 0.34 | 0.34 | 99 | 1006.1 |
| 20260506191844 | 55 | 126 | 3.5 | 5.2 | 0.00 | 0.34 | 0.34 | 99 | 1006.3 |
| 20260506191340 | 55 | 75 | 0.9 | 6.1 | 0.00 | 0.34 | 0.34 | 99 | 1006.2 |
| 20260506190837 | 55 | 105 | 2.6 | 7.0 | 0.00 | 0.34 | 0.34 | 99 | 1006.1 |
| 20260506190334 | 55 | 87 | 2.6 | 7.0 | 0.00 | 0.34 | 0.34 | 99 | 1006.2 |
| 20260506185831 | 55 | 56 | 1.7 | 6.1 | 0.00 | 0.34 | 0.34 | 99 | 1005.9 |
| 20260506185328 | 55 | 243 | 0.9 | 7.0 | 0.00 | 0.34 | 0.34 | 99 | 1006.1 |
| 20260506184825 | 55 | 107 | 3.5 | 5.2 | 0.00 | 0.34 | 0.34 | 99 | 1006.1 |
| 20260506184322 | 55 | 68 | 0.9 | 3.5 | 0.00 | 0.34 | 0.34 | 99 | 1006.1 |
| 20260506183819 | 55 | 86 | 1.7 | 3.5 | 0.00 | 0.34 | 0.34 | 99 | 1006.2 |
| 20260506183314 | 55 | 302 | 1.7 | 6.1 | 0.00 | 0.34 | 0.34 | 99 | 1006.1 |
| 20260506182812 | 55 | 98 | 2.6 | 3.5 | 0.00 | 0.34 | 0.34 | 99 | 1006.2 |
| 20260506182309 | 55 | 322 | 1.7 | 5.2 | 0.00 | 0.34 | 0.34 | 99 | 1006.3 |
| 20260506181807 | 55 | 315 | 1.7 | 5.2 | 0.00 | 0.34 | 0.34 | 99 | 1006.2 |
| 20260506181304 | 55 | 128 | 1.7 | 2.6 | 0.00 | 0.34 | 0.34 | 99 | 1006.2 |
| 20260506180801 | 55 | 175 | 1.7 | 5.2 | 0.00 | 0.34 | 0.34 | 99 | 1006.3 |
| 20260506180257 | 55 | 260 | 0.9 | 6.1 | 0.00 | 0.34 | 0.34 | 99 | 1006.1 |
| 20260506175753 | 55 | 26 | 5.2 | 7.0 | 0.00 | 0.34 | 0.34 | 99 | 1006.4 |
| 20260506175250 | 55 | 100 | 1.7 | 7.0 | 0.00 | 0.34 | 0.34 | 99 | 1006.2 |
| 20260506174748 | 55 | 101 | 4.3 | 7.0 | 0.00 | 0.34 | 0.34 | 99 | 1006.4 |
| 20260506174245 | 55 | 77 | 1.7 | 3.5 | 0.00 | 0.34 | 0.34 | 99 | 1006.1 |
| 20260506173743 | 55 | 92 | 2.6 | 5.2 | 0.00 | 0.34 | 0.34 | 99 | 1005.9 |
| 20260506173239 | 55 | 72 | 1.7 | 7.8 | 0.00 | 0.34 | 0.34 | 99 | 1006.2 |
| 20260506172736 | 55 | 82 | 0.9 | 5.2 | 0.00 | 0.34 | 0.34 | 99 | 1006.2 |
| 20260506172232 | 55 | 215 | 3.5 | 7.0 | 0.00 | 0.34 | 0.34 | 99 | 1006.3 |
| 20260506171730 | 55 | 58 | 4.3 | 7.8 | 0.00 | 0.34 | 0.34 | 99 | 1006.1 |
| 20260506171227 | 55 | 25 | 0.9 | 6.1 | 0.00 | 0.34 | 0.34 | 99 | 1006.2 |
| 20260506170725 | 55 | 109 | 1.7 | 8.7 | 0.00 | 0.34 | 0.34 | 99 | 1006.2 |
| 20260506170221 | 55 | 165 | 0.9 | 5.2 | 0.00 | 0.34 | 0.34 | 99 | 1005.9 |
| 20260506165720 | 55 | 156 | 3.5 | 6.1 | 0.00 | 0.34 | 0.34 | 99 | 1006.3 |
| 20260506165216 | 55 | 99 | 3.5 | 5.2 | 0.00 | 0.34 | 0.34 | 99 | 1005.9 |
| 20260506164714 | 55 | 322 | 1.7 | 5.2 | 0.00 | 0.34 | 0.34 | 99 | 1006.2 |
| 20260506164211 | 55 | 116 | 2.6 | 6.1 | 0.00 | 0.34 | 0.34 | 99 | 1006.1 |
| 20260506163707 | 55 | 19 | 2.6 | 2.6 | 0.00 | 0.34 | 0.34 | 99 | 1006.2 |
| 20260506163202 | 55 | 51 | 0.9 | 6.1 | 0.05 | 0.34 | 0.34 | 99 | 1006.4 |
| 20260506162658 | 55 | 287 | 2.6 | 3.5 | 0.05 | 0.34 | 0.34 | 99 | 1006.3 |
| 20260506162156 | 54 | 327 | 0.9 | 7.0 | 0.00 | 0.33 | 0.33 | 99 | 1006.4 |
| 20260506161653 | 54 | 267 | 2.6 | 6.1 | 0.07 | 0.33 | 0.33 | 99 | 1006.6 |
| 20260506161150 | 54 | 2 | 1.7 | 1.7 | 0.00 | 0.32 | 0.32 | 99 | 1006.3 |
| 20260506160648 | 54 | 333 | 4.3 | 8.7 | 0.00 | 0.32 | 0.32 | 99 | 1006.4 |
| 20260506160144 | 54 | 208 | 2.6 | 3.5 | 0.00 | 0.32 | 0.32 | 99 | 1006.5 |
| 20260506155643 | 54 | 37 | 1.7 | 7.0 | 0.00 | 0.32 | 0.32 | 99 | 1006.3 |
| 20260506155140 | 54 | 68 | 5.2 | 13.9 | 0.05 | 0.32 | 0.32 | 99 | 1006.3 |
| 20260506153241 | 54 | 355 | 2.6 | 3.5 | 0.00 | 0.31 | 0.31 | 99 | 1006.3 |
| 20260506152738 | 54 | 46 | 0.9 | 1.7 | 0.00 | 0.31 | 0.31 | 99 | 1006.1 |
| 20260506152236 | 54 | 18 | 6.1 | 7.8 | 0.07 | 0.31 | 0.31 | 99 | 1006.5 |
| 20260506151735 | 54 | 53 | 4.3 | 7.8 | 0.12 | 0.31 | 0.31 | 99 | 1006.3 |
| 20260506151231 | 54 | 2 | 3.5 | 6.1 | 0.05 | 0.30 | 0.30 | 99 | 1006.5 |
| 20260506150727 | 54 | 21 | 0.0 | 5.2 | 0.07 | 0.29 | 0.29 | 99 | 1006.3 |
| 20260506150225 | 54 | 334 | 1.7 | 3.5 | 0.00 | 0.28 | 0.28 | 99 | 1006.3 |
| 20260506145722 | 54 | 240 | 1.7 | 7.0 | 0.05 | 0.28 | 0.28 | 99 | 1006.2 |
| 20260506145218 | 54 | 102 | 2.6 | 5.2 | 0.05 | 0.28 | 0.28 | 99 | 1006.5 |
| 20260506144716 | 54 | 288 | 0.9 | 5.2 | 0.00 | 0.27 | 0.27 | 99 | 1006.3 |
| 20260506144212 | 54 | 349 | 1.7 | 7.8 | 0.07 | 0.27 | 0.27 | 99 | 1006.4 |
| 20260506143710 | 54 | 257 | 1.7 | 7.0 | 0.00 | 0.26 | 0.26 | 99 | 1006.3 |
| 20260506143208 | 54 | 96 | 1.7 | 2.6 | 0.05 | 0.26 | 0.26 | 99 | 1006.3 |
| 20260506142706 | 54 | 97 | 3.5 | 5.2 | 0.05 | 0.26 | 0.26 | 98 | 1006.1 |
| 20260506142203 | 54 | 22 | 2.6 | 7.0 | 0.00 | 0.25 | 0.25 | 98 | 1006.4 |
| 20260506141701 | 54 | 224 | 3.5 | 7.0 | 0.00 | 0.25 | 0.25 | 98 | 1006.3 |
| 20260506141159 | 54 | 301 | 1.7 | 6.1 | 0.00 | 0.25 | 0.25 | 98 | 1006.3 |
| 20260506140656 | 54 | 2 | 1.7 | 6.1 | 0.00 | 0.25 | 0.25 | 98 | 1006.3 |
| 20260506140153 | 54 | 17 | 0.9 | 7.0 | 0.00 | 0.25 | 0.25 | 98 | 1006.4 |
| 20260506135650 | 54 | 148 | 3.5 | 7.8 | 0.00 | 0.25 | 0.25 | 98 | 1006.3 |
| 20260506135146 | 54 | 29 | 1.7 | 6.1 | 0.00 | 0.25 | 0.25 | 98 | 1006.5 |
| 20260506134643 | 54 | 355 | 2.6 | 7.8 | 0.00 | 0.25 | 0.25 | 98 | 1006.4 |
| 20260506134139 | 54 | 161 | 4.3 | 7.0 | 0.07 | 0.25 | 0.25 | 98 | 1006.3 |
| 20260506133637 | 54 | 258 | 2.6 | 6.1 | 0.07 | 0.25 | 0.25 | 98 | 1005.9 |
| 20260506133133 | 54 | 292 | 1.7 | 5.2 | 0.00 | 0.24 | 0.24 | 98 | 1006.2 |
| 20260506132631 | 54 | 305 | 1.7 | 8.7 | 0.07 | 0.24 | 0.24 | 98 | 1006.3 |
| 20260506132127 | 54 | 6 | 3.5 | 6.1 | 0.12 | 0.24 | 0.24 | 98 | 1006.4 |
| 20260506131625 | 54 | 240 | 5.2 | 7.8 | 0.12 | 0.23 | 0.23 | 98 | 1006.6 |
| 20260506131121 | 54 | 168 | 0.0 | 6.1 | 0.07 | 0.22 | 0.22 | 97 | 1006.8 |
| 20260506130618 | 53 | 330 | 2.6 | 5.2 | 0.05 | 0.21 | 0.21 | 97 | 1006.9 |
| 20260506130116 | 53 | 48 | 2.6 | 2.6 | 0.12 | 0.21 | 0.21 | 97 | 1007.1 |
| 20260506125614 | 53 | 260 | 3.5 | 6.1 | 0.07 | 0.20 | 0.20 | 97 | 1007.1 |
| 20260506125111 | 53 | 274 | 0.9 | 5.2 | 0.05 | 0.19 | 0.19 | 97 | 1007.1 |
| 20260506124609 | 53 | 296 | 5.2 | 7.0 | 0.12 | 0.19 | 0.19 | 97 | 1007.1 |
| 20260506124106 | 53 | 26 | 1.7 | 2.6 | 0.12 | 0.18 | 0.18 | 97 | 1007.1 |
| 20260506123604 | 53 | 28 | 0.0 | 3.5 | 0.05 | 0.17 | 0.17 | 96 | 1007.3 |
| 20260506123102 | 53 | 328 | 0.0 | 6.1 | 0.07 | 0.16 | 0.16 | 96 | 1007.4 |
| 20260506122558 | 53 | 283 | 1.7 | 2.6 | 0.07 | 0.16 | 0.16 | 96 | 1007.2 |
| 20260506122057 | 53 | 33 | 1.7 | 1.7 | 0.00 | 0.15 | 0.15 | 97 | 1007.3 |
| 20260506121554 | 53 | 22 | 1.7 | 1.7 | 0.05 | 0.15 | 0.15 | 97 | 1007.2 |
| 20260506121050 | 53 | 311 | 1.7 | 2.6 | 0.05 | 0.15 | 0.15 | 97 | 1007.1 |
| 20260506120548 | 53 | 281 | 0.9 | 2.6 | 0.07 | 0.14 | 0.14 | 98 | 1007.0 |
| 20260506120045 | 53 | 331 | 0.9 | 3.5 | 0.07 | 0.14 | 0.14 | 98 | 1006.9 |
| 20260506115543 | 53 | 14 | 0.9 | 1.7 | 0.00 | 0.13 | 0.13 | 99 | 1006.8 |
| 20260506115041 | 53 | 335 | 1.7 | 1.7 | 0.05 | 0.13 | 0.13 | 98 | 1006.8 |
| 20260506114538 | 53 | 283 | 0.9 | 2.6 | 0.05 | 0.13 | 0.13 | 98 | 1006.9 |
| 20260506114037 | 53 | 272 | 0.9 | 2.6 | 0.07 | 0.12 | 0.12 | 98 | 1007.2 |
| 20260506113534 | 53 | 286 | 0.0 | 2.6 | 0.07 | 0.12 | 0.12 | 98 | 1007.1 |
| 20260506113031 | 53 | 335 | 0.0 | 1.7 | 0.07 | 0.11 | 0.11 | 97 | 1007.0 |
| 20260506112528 | 53 | 294 | 0.0 | 1.7 | 0.07 | 0.11 | 0.11 | 97 | 1007.2 |
| 20260506112025 | 53 | 217 | 0.0 | 0.9 | 0.05 | 0.10 | 0.10 | 97 | 1007.1 |
| 20260506111523 | 53 | 325 | 0.0 | 0.9 | 0.05 | 0.10 | 0.10 | 96 | 1007.1 |
| 20260506111020 | 53 | 349 | 0.9 | 2.6 | 0.07 | 0.09 | 0.09 | 96 | 1007.2 |
| 20260506110518 | 53 | 289 | 0.0 | 0.9 | 0.00 | 0.08 | 0.08 | 96 | 1007.2 |
| 20260506110015 | 53 | 328 | 1.7 | 2.6 | 0.05 | 0.08 | 0.08 | 96 | 1007.1 |
| 20260506105511 | 52 | 289 | 0.0 | 0.9 | 0.12 | 0.08 | 0.08 | 95 | 1007.0 |
| 20260506105008 | 53 | 293 | 0.9 | 1.7 | 0.07 | 0.07 | 0.07 | 94 | 1006.9 |
| 20260506104506 | 53 | 334 | 1.7 | 1.7 | 0.00 | 0.06 | 0.06 | 93 | 1006.9 |
| 20260506104004 | 53 | 296 | 0.9 | 1.7 | 0.05 | 0.06 | 0.06 | 92 | 1007.2 |
| 20260506103501 | 53 | 259 | 0.0 | 0.9 | 0.05 | 0.06 | 0.06 | 92 | 1007.3 |
| 20260506102957 | 53 | 308 | 0.0 | 0.9 | 0.00 | 0.05 | 0.05 | 91 | 1007.1 |
| 20260506102456 | 53 | 333 | 0.9 | 1.7 | 0.00 | 0.05 | 0.05 | 91 | 1007.1 |
| 20260506101953 | 53 | 218 | 0.0 | 2.6 | 0.07 | 0.05 | 0.05 | 90 | 1006.9 |
| 20260506101449 | 53 | 208 | 0.0 | 1.7 | 0.07 | 0.05 | 0.05 | 90 | 1007.1 |
| 20260506100946 | 53 | 299 | 0.0 | 0.9 | 0.05 | 0.04 | 0.04 | 89 | 1007.2 |
| 20260506100445 | 53 | 328 | 1.7 | 2.6 | 0.05 | 0.04 | 0.04 | 87 | 1007.2 |
| 20260506095942 | 53 | 273 | 0.9 | 0.9 | 0.00 | 0.03 | 0.03 | 86 | 1006.9 |
| 20260506095441 | 53 | 40 | 0.0 | 1.7 | 0.00 | 0.03 | 0.03 | 87 | 1007.1 |
| 20260506094936 | 53 | 297 | 0.0 | 0.0 | 0.00 | 0.03 | 0.03 | 89 | 1006.9 |
| 20260506094435 | 53 | 181 | 0.0 | 0.0 | 0.00 | 0.03 | 0.03 | 87 | 1006.8 |
| 20260506093932 | 53 | 273 | 0.0 | 0.0 | 0.00 | 0.03 | 0.03 | 86 | 1006.9 |
| 20260506093430 | 54 | 282 | 0.0 | 0.9 | 0.07 | 0.03 | 0.03 | 86 | 1007.0 |
| 20260506092928 | 54 | 270 | 0.0 | 0.9 | 0.00 | 0.02 | 0.02 | 85 | 1007.0 |
| 20260506092426 | 54 | 273 | 0.9 | 0.9 | 0.05 | 0.02 | 0.02 | 83 | 1006.9 |
| 20260506091922 | 55 | 326 | 0.0 | 0.0 | 0.05 | 0.02 | 0.02 | 84 | 1007.0 |
| 20260506091420 | 55 | 36 | 0.0 | 2.6 | 0.00 | 0.01 | 0.01 | 80 | 1007.1 |
| 20260506090917 | 55 | 94 | 0.9 | 2.6 | 0.00 | 0.01 | 0.01 | 77 | 1007.0 |
| 20260506090415 | 55 | 243 | 0.0 | 0.9 | 0.07 | 0.01 | 0.01 | 77 | 1006.9 |
| 20260506085911 | 56 | 183 | 0.9 | 1.7 | 0.07 | 0.01 | 0.01 | 76 | 1006.9 |
| 20260506085408 | 57 | 85 | 0.0 | 0.9 | 0.00 | 0.00 | 0.00 | 73 | 1006.8 |
| 20260506084904 | 57 | 34 | 0.9 | 1.7 | 0.00 | 0.00 | 0.00 | 70 | 1007.0 |
| 20260506084401 | 57 | 309 | 0.0 | 1.7 | 0.00 | 0.00 | 0.00 | 71 | 1007.2 |
| 20260506083857 | 57 | 177 | 0.0 | 0.9 | 0.00 | 0.00 | 0.00 | 71 | 1007.3 |
| 20260506083355 | 58 | 210 | 0.0 | 0.9 | 0.00 | 0.00 | 0.00 | 69 | 1007.1 |
| 20260506082852 | 58 | 291 | 0.0 | 0.0 | 0.00 | 0.00 | 0.00 | 68 | 1007.2 |
| 20260506082349 | 58 | 340 | 0.9 | 3.5 | 0.00 | 0.00 | 0.00 | 67 | 1007.3 |
| 20260506081844 | 58 | 311 | 0.9 | 1.7 | 0.00 | 0.00 | 0.00 | 67 | 1007.3 |
| 20260506081343 | 59 | 186 | 0.0 | 2.6 | 0.00 | 0.00 | 0.00 | 63 | 1007.6 |
| 20260506080840 | 60 | 37 | 1.7 | 5.2 | 0.00 | 0.00 | 0.00 | 61 | 1007.6 |
| 20260506080337 | 60 | 69 | 2.6 | 2.6 | 0.00 | 0.00 | 0.00 | 59 | 1007.6 |
| 20260506073321 | 62 | 35 | 0.9 | 3.5 | 0.00 | 0.00 | 0.00 | 53 | 1006.9 |
| 20260506072818 | 62 | 41 | 0.0 | 3.5 | 0.00 | 0.00 | 0.00 | 53 | 1007.1 |
| 20260506072315 | 62 | 218 | 0.9 | 2.6 | 0.00 | 0.00 | 0.00 | 52 | 1006.9 |
| 20260506071813 | 62 | 346 | 2.6 | 7.0 | 0.00 | 0.00 | 0.00 | 52 | 1007.0 |
| 20260506071311 | 62 | 49 | 1.7 | 3.5 | 0.00 | 0.00 | 0.00 | 52 | 1007.0 |
| 20260506070808 | 63 | 239 | 2.6 | 3.5 | 0.00 | 0.00 | 0.00 | 52 | 1007.1 |
| 20260506070305 | 62 | 145 | 0.9 | 3.5 | 0.00 | 0.00 | 0.00 | 52 | 1006.9 |
| 20260506062242 | 62 | 330 | 2.6 | 5.2 | 0.00 | 0.00 | 0.00 | 56 | 1007.4 |
| 20260506061737 | 62 | 298 | 1.7 | 2.6 | 0.00 | 0.00 | 0.00 | 56 | 1007.6 |
| 20260506061235 | 62 | 18 | 0.9 | 2.6 | 0.00 | 0.00 | 0.00 | 57 | 1007.8 |